W7BNW Weather Reports


time (UTC)temp
C
wind
direction
speed
KPH
gust
KPH
rain 1hr
cm
rain 24hr
cm
rain mn
cm
humidity
%
barometer
mb
20260507041004 17 247 1.6 6.4 0.00 0.00 0.00 34 1014.1
20260507040504 17 51 1.6 6.4 0.00 0.00 0.00 34 1014.0
20260507040004 17 50 0.0 6.4 0.00 0.00 0.00 33 1013.9
20260507035504 17 74 1.6 6.4 0.00 0.00 0.00 33 1013.8
20260507035003 17 74 3.2 6.4 0.00 0.00 0.00 32 1013.7
20260507034504 17 91 1.6 11.3 0.00 0.00 0.00 32 1013.7
20260507034004 18 90 1.6 12.9 0.00 0.00 0.00 32 1013.7
20260507033504 18 155 3.2 12.9 0.00 0.00 0.00 32 1013.5
20260507033002 18 233 4.8 22.5 0.00 0.00 0.00 31 1013.4
20260507032501 18 246 9.7 22.5 0.00 0.00 0.00 31 1013.3
20260507032001 18 218 11.3 22.5 0.00 0.00 0.00 31 1013.3
20260507031503 18 238 14.5 29.0 0.00 0.00 0.00 31 1013.2
20260507031001 18 260 17.7 29.0 0.00 0.00 0.00 31 1013.1
20260507030559 18 234 12.9 29.0 0.00 0.00 0.00 31 1012.9
20260507025559 18 254 14.5 25.7 0.00 0.00 0.00 30 1012.8
20260507025059 18 246 14.5 30.6 0.00 0.00 0.00 30 1012.6
20260507025001 18 248 12.9 30.6 0.00 0.00 0.00 30 1012.7
20260507024559 19 249 19.3 30.6 0.00 0.00 0.00 30 1012.6
20260507024058 19 237 17.7 29.0 0.00 0.00 0.00 30 1012.5
20260507023557 19 229 16.1 25.7 0.00 0.00 0.00 29 1012.4
20260507023057 19 243 16.1 25.7 0.00 0.00 0.00 29 1012.3
20260507022557 20 250 17.7 32.2 0.00 0.00 0.00 29 1012.2
20260507022057 20 238 19.3 32.2 0.00 0.00 0.00 29 1012.1
20260507021557 20 246 17.7 27.4 0.00 0.00 0.00 28 1012.1
20260507021056 20 224 19.3 27.4 0.00 0.00 0.00 28 1012.0
20260507020556 20 243 12.9 25.7 0.00 0.00 0.00 28 1012.0
20260507020113 20 237 16.1 32.2 0.00 0.00 0.00 28 1012.1
20260507015555 21 251 16.1 30.6 0.00 0.00 0.00 28 1012.1
20260507015055 21 246 19.3 29.0 0.00 0.00 0.00 27 1012.0
20260507014559 21 239 16.1 25.7 0.00 0.00 0.00 27 1012.0
20260507014056 21 219 12.9 29.0 0.00 0.00 0.00 26 1012.0
20260507013554 21 216 19.3 29.0 0.00 0.00 0.00 26 1012.0
20260507013054 22 223 12.9 25.7 0.00 0.00 0.00 26 1011.9
20260507012554 22 225 17.7 25.7 0.00 0.00 0.00 25 1011.9
20260507012054 22 234 19.3 25.7 0.00 0.00 0.00 25 1011.9
20260507011554 22 240 16.1 29.0 0.00 0.00 0.00 25 1011.9
20260507011053 22 230 17.7 29.0 0.00 0.00 0.00 24 1011.9
20260507010553 23 244 12.9 22.5 0.00 0.00 0.00 24 1012.0
20260507010106 23 257 14.5 27.4 0.00 0.00 0.00 24 1011.9
20260507005553 22 248 16.1 27.4 0.00 0.00 0.00 24 1011.8
20260507005052 23 237 22.5 27.4 0.00 0.00 0.00 23 1011.8
20260507004555 23 259 11.3 32.2 0.00 0.00 0.00 22 1011.8
20260507004053 23 242 17.7 32.2 0.00 0.00 0.00 24 1011.8
20260507003553 23 242 20.9 27.4 0.00 0.00 0.00 23 1011.5
20260507003052 23 246 17.7 27.4 0.00 0.00 0.00 22 1011.8
20260507002551 24 232 14.5 27.4 0.00 0.00 0.00 22 1011.5
20260507002051 24 244 17.7 29.0 0.00 0.00 0.00 22 1011.6
20260507001556 24 255 19.3 29.0 0.00 0.00 0.00 22 1011.5
20260507001050 24 202 9.7 22.5 0.00 0.00 0.00 20 1011.4
20260507000549 24 300 11.3 17.7 0.00 0.00 0.00 20 1011.5
20260507000050 24 294 9.7 27.4 0.00 0.00 0.00 21 1011.4
20260506235549 24 263 17.7 27.4 0.00 0.00 0.00 19 1011.3
20260506235048 24 301 12.9 27.4 0.00 0.00 0.00 20 1011.5
20260506234552 25 266 19.3 27.4 0.00 0.00 0.00 19 1011.4
20260506234048 25 260 12.9 29.0 0.00 0.00 0.00 19 1011.3
20260506233551 25 300 19.3 29.0 0.00 0.00 0.00 19 1011.3
20260506233047 25 267 16.1 22.5 0.00 0.00 0.00 18 1011.4
20260506232546 25 281 14.5 24.1 0.00 0.00 0.00 20 1011.5
20260506232044 24 279 14.5 30.6 0.00 0.00 0.00 20 1011.5
20260506231603 23 242 16.1 30.6 0.00 0.00 0.00 21 1011.5
20260506231043 23 72 3.2 12.9 0.00 0.00 0.00 21 1011.6
20260506230543 22 279 6.4 14.5 0.00 0.00 0.00 22 1011.9
20260506225541 22 117 3.2 14.5 0.00 0.00 0.00 22 1011.8
20260506225042 22 274 3.2 16.1 0.00 0.00 0.00 22 1011.8
20260506224541 23 286 11.3 20.9 0.00 0.00 0.00 21 1011.9
20260506224040 23 210 9.7 22.5 0.00 0.00 0.00 21 1011.9
20260506223543 23 247 8.0 22.5 0.00 0.00 0.00 21 1011.9
20260506223039 23 254 8.0 32.2 0.00 0.00 0.00 21 1011.9
20260506222540 23 248 20.9 32.2 0.00 0.00 0.00 20 1011.8
20260506222040 23 265 14.5 25.7 0.00 0.00 0.00 21 1012.2
20260506221541 23 314 14.5 24.1 0.00 0.00 0.00 21 1012.2
20260506221038 23 189 8.0 29.0 0.00 0.00 0.00 21 1012.4
20260506220535 23 275 12.9 29.0 0.00 0.00 0.00 21 1012.6
20260506220038 23 227 8.0 24.1 0.00 0.00 0.00 21 1012.5
20260506215534 23 271 14.5 24.1 0.00 0.00 0.00 21 1012.7
20260506215034 23 342 16.1 24.1 0.00 0.00 0.00 21 1012.8
20260506214538 23 336 14.5 20.9 0.00 0.00 0.00 22 1012.9
20260506214034 23 304 3.2 20.9 0.00 0.00 0.00 23 1012.9
20260506213532 23 261 12.9 20.9 0.00 0.00 0.00 22 1013.0
20260506213033 23 248 8.0 20.9 0.00 0.00 0.00 23 1013.1
20260506212531 22 309 6.4 20.9 0.00 0.00 0.00 22 1013.1
20260506212030 22 128 6.4 19.3 0.00 0.00 0.00 22 1013.2
20260506211629 22 307 11.3 22.5 0.00 0.00 0.00 22 1013.3
20260506211030 22 243 12.9 22.5 0.00 0.00 0.00 22 1013.4
20260506210530 22 246 4.8 25.7 0.00 0.00 0.00 22 1013.3
20260506210032 22 266 17.7 25.7 0.00 0.00 0.00 23 1013.4
20260506205529 22 270 9.7 19.3 0.00 0.00 0.00 23 1013.5
20260506205029 23 304 12.9 29.0 0.00 0.00 0.00 23 1013.6
20260506204533 22 288 9.7 29.0 0.00 0.00 0.00 24 1013.5
20260506204026 22 292 11.3 27.4 0.00 0.00 0.00 23 1013.9
20260506203525 22 195 14.5 27.4 0.00 0.00 0.00 24 1013.8
20260506203025 22 231 11.3 19.3 0.00 0.00 0.00 24 1013.9
20260506202524 21 267 4.8 30.6 0.00 0.00 0.00 24 1014.0
20260506202025 21 223 12.9 30.6 0.00 0.00 0.00 24 1014.3
20260506201535 22 242 14.5 33.8 0.00 0.00 0.00 24 1014.2
20260506201024 22 290 17.7 33.8 0.00 0.00 0.00 25 1014.3
20260506200523 21 266 11.3 25.7 0.00 0.00 0.00 25 1014.5
20260506200023 21 264 14.5 27.4 0.00 0.00 0.00 26 1014.5
20260506195523 21 250 14.5 29.0 0.00 0.00 0.00 25 1014.6
20260506195022 21 316 19.3 37.0 0.00 0.00 0.00 24 1014.7
20260506194521 21 278 17.7 37.0 0.00 0.00 0.00 26 1014.6
20260506194024 20 268 12.9 27.4 0.00 0.00 0.00 25 1014.7
20260506193518 20 266 17.7 30.6 0.00 0.00 0.00 26 1014.9
20260506193024 20 272 14.5 30.6 0.00 0.00 0.00 26 1014.7
20260506192518 20 256 11.3 27.4 0.00 0.00 0.00 26 1014.7
20260506192021 20 315 11.3 24.1 0.00 0.00 0.00 26 1014.9
20260506191517 20 287 14.5 24.1 0.00 0.00 0.00 27 1014.9
20260506191018 20 342 11.3 22.5 0.00 0.00 0.00 26 1015.0
20260506190516 20 315 6.4 22.5 0.00 0.00 0.00 27 1015.1
20260506190025 20 335 12.9 22.5 0.00 0.00 0.00 27 1015.2
20260506185515 19 271 12.9 20.9 0.00 0.00 0.00 27 1015.3
20260506185014 19 96 3.2 22.5 0.00 0.00 0.00 26 1015.3
20260506184520 19 232 11.3 20.9 0.00 0.00 0.00 27 1015.3
20260506184014 19 265 4.8 16.1 0.00 0.00 0.00 26 1015.4
20260506183513 19 272 9.7 16.1 0.00 0.00 0.00 26 1015.4
20260506183012 18 174 6.4 16.1 0.00 0.00 0.00 27 1015.4
20260506182511 18 209 8.0 19.3 0.00 0.00 0.00 26 1015.4
20260506182009 18 240 4.8 19.3 0.00 0.00 0.00 28 1015.5
20260506181512 18 131 6.4 16.1 0.00 0.00 0.00 27 1015.6
20260506181009 17 291 3.2 17.7 0.00 0.00 0.00 28 1015.7
20260506180508 17 311 9.7 20.9 0.00 0.00 0.00 28 1015.7
20260506180014 17 321 6.4 19.3 0.00 0.00 0.00 28 1015.6
20260506175509 17 355 6.4 19.3 0.00 0.00 0.00 28 1015.6
20260506175007 18 259 12.9 19.3 0.00 0.00 0.00 28 1015.8
20260506174518 17 345 4.8 11.3 0.00 0.00 0.00 29 1015.7
20260506174006 17 294 3.2 11.3 0.00 0.00 0.00 29 1015.7
20260506173505 17 173 1.6 14.5 0.00 0.00 0.00 29 1015.7
20260506173005 17 273 4.8 20.9 0.00 0.00 0.00 30 1015.8
20260506172503 16 322 8.0 20.9 0.00 0.00 0.00 31 1015.7
20260506172002 16 281 8.0 14.5 0.00 0.00 0.00 30 1015.8
20260506171501 16 193 3.2 16.1 0.00 0.00 0.00 31 1015.8
20260506171002 16 212 6.4 16.1 0.00 0.00 0.00 31 1015.8
20260506170502 16 296 8.0 14.5 0.00 0.00 0.00 31 1015.8
20260506165601 16 269 1.6 8.0 0.00 0.00 0.00 34 1015.9
20260506165058 15 302 1.6 11.3 0.00 0.00 0.00 35 1015.8
20260506164559 15 295 3.2 12.9 0.00 0.00 0.00 35 1016.0
20260506164058 15 234 3.2 12.9 0.00 0.00 0.00 34 1016.0
20260506163557 15 236 1.6 6.4 0.00 0.00 0.00 35 1015.8
20260506163057 14 227 1.6 8.0 0.00 0.00 0.00 36 1015.9
20260506162553 14 252 1.6 8.0 0.00 0.00 0.00 36 1016.0
20260506162055 14 199 3.2 6.4 0.00 0.00 0.00 38 1015.9
20260506161553 14 198 1.6 6.4 0.00 0.00 0.00 38 1015.9
20260506161052 14 222 3.2 6.4 0.00 0.00 0.00 39 1016.0
20260506160551 13 135 1.6 6.4 0.00 0.00 0.00 40 1016.0
20260506160101 13 136 1.6 6.4 0.00 0.00 0.00 41 1016.0
20260506155548 13 158 0.0 6.4 0.00 0.00 0.00 42 1016.1
20260506155047 12 144 1.6 6.4 0.00 0.00 0.00 43 1016.1
20260506154546 12 197 1.6 4.8 0.00 0.00 0.00 43 1016.0
20260506154046 12 302 0.0 4.8 0.00 0.00 0.00 44 1016.1
20260506153545 11 302 0.0 4.8 0.00 0.00 0.00 43 1016.1
20260506153043 11 301 0.0 4.8 0.00 0.00 0.00 44 1016.2
20260506152544 10 300 1.6 4.8 0.00 0.00 0.00 44 1016.2
20260506152038 10 306 0.0 4.8 0.00 0.00 0.00 45 1016.1
20260506151541 9 304 0.0 4.8 0.00 0.00 0.00 46 1016.1
20260506151035 8 304 0.0 3.2 0.00 0.00 0.00 47 1016.0
20260506150536 8 304 0.0 3.2 0.00 0.00 0.00 48 1016.1
20260506150032 7 305 0.0 3.2 0.00 0.00 0.00 49 1016.1
20260506145531 7 305 0.0 6.4 0.00 0.00 0.00 50 1016.1
20260506145030 7 305 1.6 6.4 0.00 0.00 0.00 50 1016.1
20260506144530 6 280 1.6 4.8 0.00 0.00 0.00 51 1016.1
20260506144030 6 280 1.6 4.8 0.00 0.00 0.00 52 1016.1
20260506143531 6 280 1.6 4.8 0.00 0.00 0.00 52 1016.0
20260506143027 5 280 0.0 4.8 0.00 0.00 0.00 53 1016.0
20260506142526 5 280 1.6 4.8 0.00 0.00 0.00 54 1016.1
20260506142026 4 279 1.6 4.8 0.00 0.00 0.00 55 1016.2
20260506141526 3 279 3.2 6.4 0.00 0.00 0.00 55 1016.3
20260506141026 3 279 1.6 6.4 0.00 0.00 0.00 56 1016.4
20260506140526 3 279 4.8 6.4 0.00 0.00 0.00 55 1016.4
20260506140031 3 292 3.2 6.4 0.00 0.00 0.00 55 1016.4
20260506135528 3 279 3.2 6.4 0.00 0.00 0.00 54 1016.3
20260506135024 3 277 1.6 3.2 0.00 0.00 0.00 55 1016.2
20260506134524 3 277 1.6 3.2 0.00 0.00 0.00 56 1016.2
20260506134025 2 277 0.0 3.2 0.00 0.00 0.00 57 1016.1
20260506133523 2 277 0.0 4.8 0.00 0.00 0.00 57 1016.0
20260506133028 2 277 1.6 4.8 0.00 0.00 0.00 57 1015.9
20260506132522 2 277 1.6 3.2 0.00 0.00 0.00 59 1015.9
20260506132023 1 296 0.0 1.6 0.00 0.00 0.00 60 1016.0
20260506131521 1 296 0.0 0.0 0.00 0.00 0.00 61 1015.7
20260506131023 0 296 0.0 0.0 0.00 0.00 0.00 61 1015.5
20260506130520 0 296 0.0 0.0 0.00 0.00 0.00 61 1015.5
20260506130019 0 296 0.0 0.0 0.00 0.00 0.00 61 1015.4
20260506125518 0 296 0.0 0.0 0.00 0.00 0.00 60 1015.3
20260506125017 0 296 0.0 0.0 0.00 0.00 0.00 59 1015.2
20260506124521 0 296 0.0 3.2 0.00 0.00 0.00 59 1015.1
20260506124018 0 296 0.0 3.2 0.00 0.00 0.00 59 1015.0
20260506123516 0 296 1.6 4.8 0.00 0.00 0.00 59 1015.0
20260506123014 1 296 3.2 4.8 0.00 0.00 0.00 59 1015.0
20260506122513 1 307 0.0 3.2 0.00 0.00 0.00 59 1014.9
20260506122014 1 307 0.0 3.2 0.00 0.00 0.00 57 1014.9
20260506121511 1 307 1.6 4.8 0.00 0.00 0.00 57 1014.8
20260506121010 1 307 1.6 4.8 0.00 0.00 0.00 58 1014.8
20260506120509 1 307 1.6 4.8 0.00 0.00 0.00 59 1014.6
20260506120009 1 307 0.0 3.2 0.00 0.00 0.00 60 1014.6
20260506115509 1 307 0.0 3.2 0.00 0.00 0.00 60 1014.4
20260506115007 1 307 0.0 0.0 0.00 0.00 0.00 59 1014.3
20260506114527 1 307 0.0 0.0 0.00 0.00 0.00 58 1014.3
20260506114007 1 307 0.0 0.0 0.00 0.00 0.00 58 1014.4
20260506113507 1 307 0.0 1.6 0.00 0.00 0.00 58 1014.4
20260506113006 1 307 0.0 4.8 0.00 0.00 0.00 58 1014.4
20260506112507 1 307 1.6 4.8 0.00 0.00 0.00 58 1014.5
20260506112005 1 307 1.6 3.2 0.00 0.00 0.00 57 1014.4
20260506111504 1 307 0.0 4.8 0.00 0.00 0.00 57 1014.4
20260506111004 1 307 1.6 4.8 0.00 0.00 0.00 56 1014.4
20260506110501 1 307 1.6 4.8 0.00 0.00 0.00 56 1014.4
20260506110101 1 307 1.6 4.8 0.00 0.00 0.00 57 1014.4
20260506105600 1 307 3.2 6.4 0.00 0.00 0.00 57 1014.3
20260506105104 2 294 3.2 6.4 0.00 0.00 0.00 56 1014.2
20260506104606 2 270 3.2 6.4 0.00 0.00 0.00 57 1014.2
20260506104058 2 237 3.2 4.8 0.00 0.00 0.00 58 1014.1
20260506103556 2 171 4.8 6.4 0.00 0.00 0.00 59 1013.9
20260506103055 3 171 4.8 6.4 0.00 0.00 0.00 58 1013.8
20260506102555 3 171 4.8 8.0 0.00 0.00 0.00 58 1013.8
20260506102053 3 169 4.8 8.0 0.00 0.00 0.00 57 1013.7
20260506101552 3 164 4.8 9.7 0.00 0.00 0.00 58 1013.8
20260506101052 3 162 6.4 9.7 0.00 0.00 0.00 58 1013.6
20260506100552 3 159 3.2 9.7 0.00 0.00 0.00 58 1013.6
20260506100104 3 155 4.8 9.7 0.00 0.00 0.00 58 1013.4
20260506095552 3 152 4.8 9.7 0.00 0.00 0.00 58 1013.2
20260506095049 3 165 6.4 9.7 0.00 0.00 0.00 58 1013.1
20260506094548 3 173 4.8 8.0 0.00 0.00 0.00 57 1013.0
20260506094045 3 176 4.8 8.0 0.00 0.00 0.00 56 1013.1
20260506093544 3 202 1.6 4.8 0.00 0.00 0.00 56 1013.0
20260506093043 3 202 1.6 6.4 0.00 0.00 0.00 57 1013.0
20260506092543 3 203 3.2 6.4 0.00 0.00 0.00 57 1012.9
20260506092045 3 215 1.6 3.2 0.00 0.00 0.00 56 1012.9
20260506091542 3 215 0.0 4.8 0.00 0.00 0.00 55 1012.9
20260506091041 3 215 3.2 4.8 0.00 0.00 0.00 55 1012.9
20260506090540 3 215 1.6 4.8 0.00 0.00 0.00 54 1012.9
20260506090040 3 215 1.6 3.2 0.00 0.00 0.00 53 1012.9
20260506085538 3 215 1.6 3.2 0.00 0.00 0.00 52 1013.0
20260506085038 3 215 1.6 4.8 0.00 0.00 0.00 51 1012.9
20260506084541 3 215 0.0 4.8 0.00 0.00 0.00 51 1012.9
20260506084037 3 205 3.2 4.8 0.00 0.00 0.00 50 1012.9
20260506083535 4 205 0.0 3.2 0.00 0.00 0.00 50 1012.9
20260506083033 4 205 1.6 3.2 0.00 0.00 0.00 51 1012.7
20260506082531 4 205 0.0 3.2 0.00 0.00 0.00 51 1012.7
20260506082031 5 205 1.6 3.2 0.00 0.00 0.00 52 1012.8
20260506081530 5 205 1.6 4.8 0.00 0.00 0.00 51 1012.7
20260506081029 5 205 1.6 6.4 0.00 0.00 0.00 52 1012.7
20260506080529 5 181 4.8 6.4 0.00 0.00 0.00 53 1012.7
20260506073524 5 181 6.4 9.7 0.00 0.00 0.00 51 1012.7
20260506073021 6 184 6.4 9.7 0.00 0.00 0.00 50 1012.7
20260506072520 6 182 4.8 8.0 0.00 0.00 0.00 49 1012.7
20260506072020 6 183 4.8 8.0 0.00 0.00 0.00 49 1012.6
20260506071518 6 182 4.8 8.0 0.00 0.00 0.00 50 1012.7
20260506071017 6 182 3.2 6.4 0.00 0.00 0.00 50 1012.6
20260506070515 6 181 3.2 4.8 0.00 0.00 0.00 50 1012.6
20260506062512 8 180 0.0 3.2 0.00 0.00 0.00 44 1012.3
20260506062012 8 180 0.0 6.4 0.00 0.00 0.00 43 1012.3
20260506061512 8 191 3.2 4.8 0.00 0.00 0.00 42 1012.1
20260506061013 9 208 0.0 0.0 0.00 0.00 0.00 42 1012.0
20260506060511 9 208 0.0 1.6 0.00 0.00 0.00 42 1011.9
20260506051008 11 5 0.0 3.2 0.00 0.00 0.00 39 1011.4
20260506050506 11 5 0.0 1.6 0.00 0.00 0.00 38 1011.4
20260506045005 11 63 0.0 3.2 0.00 0.00 0.00 39 1011.5
20260506044504 11 63 0.0 3.2 0.00 0.00 0.00 39 1011.4
20260506044004 11 50 0.0 3.2 0.00 0.00 0.00 38 1011.4
20260506043505 11 40 0.0 1.6 0.00 0.00 0.00 38 1011.4
20260506043003 11 40 0.0 3.2 0.00 0.00 0.00 38 1011.2
20260506042507 11 40 0.0 3.2 0.00 0.00 0.00 37 1011.1
20260506042002 12 44 0.0 6.4 0.00 0.00 0.00 37 1011.1